World > North America > United States > Michigan > Whitehall   City of Whitehall, Michigan

Whitehall, MI Hourly Weather Conditions

Feedback E-mail the Weather

Quick WX

Whitehall, MI Weather Maps

°F °C°F °C
Whitehall Weather Map
UTC Time: 2/8/2023, 00:26
Your Time:

Whitehall, MI Regional Weather

Expires:202302080100;;977725
ASUS43 KDTX 080010
RWRMI 
MICHIGAN HOURLY REGIONAL WEATHER ROUNDUP
NATIONAL WEATHER SERVICE DETROIT/PONTIAC MI
700 PM EST TUE FEB 07 2023

NOTE: "FAIR" INDICATES FEW OR NO CLOUDS BELOW 12,000 FEET WITH NO
SIGNIFICANT WEATHER AND/OR OBSTRUCTION TO VISIBILITY.


MIZ043>046-050>051-056>058-064>065-071>073-077>080-080100-
SOUTHWEST LOWER MICHIGAN
  
CITY           SKY/WX    TMP DP  RH WIND       PRES   REMARKS
BATTLE CREEK   CLOUDY    37  31  78 W15G24    30.09R WCI  28          
6HR MIN TEMP:  37; 6HR MAX TEMP:  39;                                

BENTON HARBOR  CLOUDY    38  33  82 W13       30.12R WCI  30          
6HR MIN TEMP:  37; 6HR MAX TEMP:  39;                                

BIG RAPIDS     CLOUDY    36  28  72 W10G23    30.02R WCI  28          
6HR MIN TEMP:  36; 6HR MAX TEMP:  37;                                

COLDWATER      CLOUDY    36  32  87 W13G18    30.11R WCI  27          
6HR MIN TEMP:  35; 6HR MAX TEMP:  46;                                

FREMONT        CLOUDY    37  27  65 W10G16    30.06R WCI  30          
6HR MIN TEMP:  37; 6HR MAX TEMP:  38;                                

HOLLAND        CLOUDY    38  31  76 W14G20    30.10R WCI  30          
6HR MIN TEMP:  38; 6HR MAX TEMP:  39;                                

GRAND RAPIDS   CLOUDY    37  31  78 W14       30.08R WCI  28          
6HR MIN TEMP:  37; 6HR MAX TEMP:  38;                                

IONIA          CLOUDY    37  31  78 W9G17     30.07R WCI  31          
6HR MIN TEMP:  37; 6HR MAX TEMP:  38;                                

KALAMAZOO      CLOUDY    37  31  78 W9        30.10R WCI  30          
6HR MIN TEMP:  37; 6HR MAX TEMP:  39;                                

LUDINGTON      PTCLDY    37  28  68 W8        30.05R WCI  31          
6HR MIN TEMP:  37; 6HR MAX TEMP:  40;                                

MARSHALL       CLOUDY    36  32  87 W13G21    30.08R WCI  27          
6HR MIN TEMP:  36; 6HR MAX TEMP:  40;                                

MOUNT PLEASANT CLOUDY    37  28  72 W10       30.03R WCI  29          
6HR MIN TEMP:  37; 6HR MAX TEMP:  38;                                

MUSKEGON       CLOUDY    40  30  67 W9        30.09R WCI  34          
6HR MIN TEMP:  39; 6HR MAX TEMP:  42;                                

SOUTH HAVEN    CLOUDY    38  31  76 W10G17    30.12R WCI  32          
$$

SKY/WX - Weather  TMP - Temperature  DP - Dew Point  RH - Humidity
WIND - Wind Direction/Speed PRES - Barometric Pressure VSB - Visibility
WCI - Wind Chill Index E13G22 Wind - East Wind 13 mph/Gusts of 22 mph

Trending Headlines

Trending Entertainment Headlines

Whitehall Radar Loop

Use the map search tool if you want to place a location marker on the radar map...

Whitehall Quick Facts

National Two Day Weather Forecast


E-mail the Whitehall Weather Forecast

Voice your opinion or tell us about page issues...